www.pogodaiklimat.ru

Погода и климат >> Архив погоды >> Индонезия >> Банджармасин


ПОГОДА в Банджармасине

  • Прогноз погоды в Банджармасине
  • Монитор погоды в Банджармасине

АРХИВ ПОГОДЫ в Банджармасине

Время (UTC), дата Ветер
(напр.,м/с)
 
Видим.   Явления Облачность Т
(С)
Тd
(С)
f
(%)
Тe
(С)
Тes
(С)
Комфортность P
(гПа)
Po
(гПа)
Тmin
(С)
Tmax
(С)
R
(мм)
R24
(мм)
S
(см)
03 17.03 С 3 10 км 8/3 600 м
[Sc As trans Ci fib]
+29.0 +23.2 71 +39 +46 очень
душно
1012.6 1010.4
06 17.03 З 4 10 км 9/6 540 м
[Cu Sc As trans Ci fib]
+31.4 +23.4 63 +42 +46 опасность
перегрева
1009.9 1007.8
09 17.03 ЮЗ 2 10 км в посл. час дождь 9/5 540 м
[Cu Sc As trans Ci fib]
+28.0 +26.4 91 +43 +44 опасность
перегрева
1008.6 1006.5 4
12 17.03 З 3 10 км {дождь} 8/5 540 м
[Cu Sc As trans Ci fib]
+26.4 +23.5 84 +36 +36 очень
душно
1011.3 1009.1 +31.8 1
15 17.03 С 2 10 км 8/4 540 м
[Cu Sc As trans Ci fib]
+25.9 +24.1 90 +36 +36 очень
душно
1013.5 1011.2
18 17.03 СВ 2 10 км 5/1 540 м
[Cu Sc As trans Ci fib]
+24.6 +23.8 95 +33 +33 очень
душно
1010.6 1008.5
21 17.03 В 2 10 км 5/1 540 м
[Cu Sc As trans Ci fib]
+24.2 +23.6 96 +33 +33 очень
душно
1010.0 1007.9
00 18.03 СВ 3 10 км 8/4 540 м
[Cu Sc As trans Ci fib]
+24.8 +23.7 94 +34 +35 очень
душно
1011.6 1009.4 +23.8 4
03 18.03 С 3 10 км 6/4 540 м
[Cu Sc As trans Ci fib]
+29.6 +24.1 72 +41 +50 опасность
перегрева
1011.7 1009.5
06 18.03 СЗ 3 10 км 8/5 540 м
[Cu Sc As trans Ci fib]
+32.4 +24.6 64 +45 +51 опасность
перегрева
1008.2 1006.1
09 18.03 ЮЗ 3 10 км 8/3 540 м
[Sc As trans Ci fib]
+31.0 +24.5 68 +43 +44 опасность
перегрева
1006.9 1004.8
12 18.03 ЮЗ 2 10 км 8/3 540 м
[Sc As trans Ci fib]
+28.6 +23.4 73 +39 +39 очень
душно
1009.3 1007.1 +32.8
15 18.03 ЮЗ 2 10 км 6/1 600 м
[Cu hum As trans Ci fib]
+27.4 +24.8 86 +39 +39 очень
душно
1010.5 1008.4
18 18.03 Ю 2 10 км 6/1 600 м
[Cu hum As trans Ci fib]
+26.8 +24.9 89 +38 +38 очень
душно
1009.4 1007.3
21 18.03 С 2 10 км 6/1 600 м
[Cu hum As trans Ci fib]
+26.4 +25.0 92 +38 +38 очень
душно
1009.2 1007.1
00 19.03 С 3 9000 м 8/4 540 м
[Cu Sc As trans Ci fib]
+26.8 +25.7 94 +40 +41 очень
душно
1010.9 1008.8 +24.8
03 19.03 З 5 10 км 8/4 540 м
[Cu Sc As trans Ci fib]
+30.4 +23.8 68 +42 +46 опасность
перегрева
1010.1 1007.9
06 19.03 З 5 8000 м осадки на расстоянии 9/5 540 м
[Cb cap As trans Ci fib]
+30.2 +25.1 74 +44 +47 опасность
перегрева
1007.4 1005.2
09 19.03 Ю 3 10 км {дождь} 8/4 570 м
[Cu Sc As trans Ci fib]
+28.0 +25.0 84 +40 +41 очень
душно
1006.7 1004.5 2
12 19.03 ЮВ 3 10 км гроза без осадков 8/5 480 м
[Cb cap As trans Ci fib]
+27.6 +24.9 85 +39 +39 очень
душно
1008.7 1006.6 +32.6 2
15 19.03 СВ 3 10 км 9/8 570 м
[Sc As trans Ci fib]
+27.6 +26.0 91 +41 +41 опасность
перегрева
1010.7 1008.6
18 19.03 СВ 2 10 км 8/5 570 м
[Sc As trans Ci fib]
+26.4 +25.6 95 +39 +39 очень
душно
1009.0 1006.8
21 19.03 В 2 8000 м 6/4 570 м
[Sc As trans Ci fib]
+25.2 +24.7 97 +35 +35 очень
душно
1008.8 1006.7
00 20.03 В 2 10 км 4/1 500 м
[Sc As trans Ci fib]
+25.8 +24.2 91 +36 +39 очень
душно
1010.3 1008.2 +24.5 2
03 20.03 СЗ 3 10 км 6/4 500 м
[Sc As trans Ci fib]
+31.1 +23.6 64 +42 +50 опасность
перегрева
1010.6 1008.4
06 20.03 З 3 10 км 8/5 600 м
[Cu Sc As trans Ci fib]
+32.0 +24.1 63 +44 +49 опасность
перегрева
1007.1 1005.0
09 20.03 ЮЗ 3 10 км 5/1 600 м
[Sc As trans Ci fib]
+32.2 +24.0 62 +44 +46 опасность
перегрева
1006.1 1003.9
12 20.03 Ю 2 10 км 5/3 600 м
[Sc As trans Ci fib]
+29.0 +25.2 80 +42 +42 опасность
перегрева
1008.1 1005.9 +33.0
15 20.03 Ю 3 10 км 5/3 600 м
[Sc As trans Ci fib]
+27.4 +25.0 87 +39 +39 очень
душно
1010.5 1008.4
18 20.03 штиль 0 10 км 5/3 600 м
[Sc As trans Ci fib]
+26.6 +25.0 91 +38 +38 очень
душно
1009.1 1007.0
21 20.03 штиль 0 10 км 5/1 600 м
[Sc As trans Ci fib]
+26.2 +25.1 94 +38 +38 очень
душно
1008.5 1006.3
00 21.03 СВ 2 7000 м 5/1 600 м
[Sc As trans Ci fib]
+27.0 +25.7 93 +40 +43 очень
душно
1010.3 1008.1 +26.0
03 21.03 СЗ 4 10 км 8/4 600 м
[Sc As trans Ci fib]
+32.6 +24.5 62 +45 +51 опасность
перегрева
1010.6 1008.5
06 21.03 ЮЗ 4 10 км 8/4 600 м
[Cu Sc As trans Ci fib]
+32.2 +24.6 64 +45 +50 опасность
перегрева
1008.0 1005.9
09 21.03 ЮЗ 4 10 км 8/1 600 м
[Cu hum As trans Ci fib]
+32.2 +22.2 56 +41 +42 опасность
перегрева
1006.5 1004.4
12 21.03 Ю 2 10 км 6/3 540 м
[Sc As trans Ci fib]
+28.8 +24.3 77 +40 +40 очень
душно
1008.9 1006.7 +33.3
15 21.03 Ю 2 10 км 6/3 540 м
[Sc As trans Ci fib]
+27.2 +24.9 87 +39 +39 очень
душно
1010.9 1008.8
18 21.03 штиль 0 10 км 6/3 540 м
[Sc As trans Ci fib]
+27.2 +25.0 88 +39 +39 очень
душно
1009.9 1007.9
21 21.03 штиль 0 10 км 5/1 540 м
[Sc As trans Ci fib]
+26.6 +24.4 88 +37 +37 очень
душно
1009.4 1007.2
00 22.03 СВ 3 10 км 6/3 540 м
[Sc As trans Ci fib]
+27.4 +25.2 88 +40 +41 очень
душно
1011.0 1008.9 +26.6
03 22.03 СЗ 3 10 км 8/4 540 м
[Cu Sc As trans Ci fib]
+31.0 +24.8 70 +44 +51 опасность
перегрева
1010.8 1008.7
06 22.03 ЮЗ 4 10 км 9/5 480 м
[Cu Sc As trans Ci fib]
+33.4 +24.8 61 +47 +51 опасность
перегрева
1007.9 1005.7
09 22.03 Ю 2 10 км {дождь} 9/5 540 м
[Cu Sc As trans Ci fib]
+30.8 +24.3 68 +43 +44 опасность
перегрева
1006.7 1004.6 0.0
12 22.03 ЮВ 3 9000 м {дождь} 8/3 540 м
[Sc As trans Ci fib]
+29.3 +25.5 80 +43 +43 опасность
перегрева
1008.9 1006.8 +34.4 0.0
15 22.03 ЮВ 2 8000 м 6/3 540 м
[Sc As trans Ci fib]
+28.0 +26.0 89 +42 +42 опасность
перегрева
1011.0 1008.8
18 22.03 ЮВ 2 7000 м 5/1 540 м
[Sc As trans Ci fib]
+27.0 +26.2 95 +41 +41 опасность
перегрева
1009.9 1007.7
21 22.03 В 2 8000 м 6/3 540 м
[Sc Ac As Ci fib]
+26.6 +25.1 91 +38 +38 очень
душно
1009.0 1006.9
00 23.03 СВ 2 4000 м 8/1 540 м
[Sc As trans Ci fib]
+27.4 +25.8 91 +41 +43 опасность
перегрева
1010.6 1008.4 +26.4 0.0
03 23.03 СЗ 3 10 км 8/4 540 м
[Sc As trans Ci fib]
+31.6 +24.8 67 +45 +51 опасность
перегрева
1011.1 1008.9
06 23.03 СВ 2 10 км 8/5 540 м
[Cu Sc As trans Ci fib]
+33.8 +24.9 60 +47 +54 опасность
перегрева
1007.5 1005.3
09 23.03 СЗ 4 10 км гроза без осадков 9/6 480 м
[Cb cap As trans Ci fib]
+29.4 +25.4 79 +43 +43 опасность
перегрева
1006.5 1004.3 0.0
12 23.03 В 2 8000 м зарница {гроза, дождь} 9/5 480 м
[Cb cap As trans Ci fib]
+27.0 +24.5 86 +38 +38 очень
душно
1008.5 1006.4 +33.8 0.5
15 23.03 С 7 2000 м гроза, ливневой дождь 10/8 450 м
[Cb cap As trans]
+23.2 +22.9 98 +32 +32 очень
душно
1011.5 1009.3 24
18 23.03 СВ 2 7000 м слаб. дождь {гроза} 10/8 450 м
[Cb cap As op]
+23.6 +23.3 98 +32 +32 очень
душно
1010.0 1007.8 41
21 23.03 В 2 9000 м {дождь} 8/3 540 м
[Sc As trans Ci fib]
+23.8 +23.2 96 +32 +32 очень
душно
1008.8 1006.6 0.9
00 24.03 СВ 2 10 км {дождь} 9/3 540 м
[Sc As trans Ci fib]
+24.7 +23.7 94 +34 +35 очень
душно
1010.7 1008.6 +23.0 66

 

Местоположение метеостанции Банджармасин (Индонезия): широта -3.43 долгота 114.75 высота над уровнем моря 20 м.

В архиве по умолчанию представлена погода в Банджармасине за последнюю неделю. Архивные данные за месяц целиком и за предыдущие месяцы, начиная с января 2011 года, Вы можете получить, выбрав интересующий диапазон дат из раскрывающегося списка и нажав кнопку "Ввод!".


*Определитесь, кто Вы:
робот инопланетянин человек

Внимание! Время в таблицах - всемирное. Для получения местного времени необходимо прибавить поправку, которая равна 8 ч.

Смотрите также архив погоды в соседних городах и на ближайших метеорологических станциях:

Погода в Котабару (Индонезия) (162 км)
Погода в Муаратевехе (Индонезия) (276 км)
Погода в Паоанкарая (Индонезия) (283 км)
Погода в Баликпапане (Индонезия) (339 км)
Погода в Пангкалан-Буне (Индонезия) (348 км)
Погода в Сангкапуре (Индонезия) (357 км)
Погода в Самаринде (Индонезия) (411 км)
Погода в Калиянджете (Индонезия) (412 км)
Погода в Сурабая Геданган (Индонезия) (437 км)
Погода в Нангапинохе (Индонезия) (476 км)

Пояснения к столбцам:

Ветер - указаны скорость ветра в м/с - средняя за 10 мин, порывы в срок и между сроками (в фигурных скобках) и направление, откуда дует ветер: С - северный, СВ - северо-восточный, В - восточный, ЮВ - юго-восточный, Ю - южный, ЮЗ - юго-западный, З - западный, СЗ - северо-западный.
Видимость - горизонтальная дальность видимости в метрах или километрах. При видимости от 1 до 10 км при отсутствии осадков обычно наблюдается дымка, при ухудшении видимости до 1 км и менее - туман. В сухую погоду видимость может ухудшаться дымом, пылью или мглою.
Явления - указаны атмосферные явления, наблюдавшиеся в срок или в последний час перед сроком; фигурными скобками обозначены явления, наблюдавшиеся между сроками (за 1-3 часа до срока); квадратными скобками обозначены град или гололедные отложения с указанием их диаметра в мм.
Облачность - указаны через наклонную черту общая и нижняя облачность в баллах и высота нижней границы облаков в метрах; квадратными скобками обозначены формы облаков: Ci - перистые, Cs - перисто-слоистые, Cc - перисто-кучевые, Ac - высококучевые, As - высокослоистые, Sc - слоисто-кучевые, Ns - слоисто-дождевые, Cu - кучевые, Cb - кучево-дождевые. Подробнее классификацию облаков см. в Атласе облаков (PDF).
T - Температура воздуха - температура, измеренная на высоте 2 м над землей.
Td - Температура точки росы - температура, при понижении до которой содержащийся в воздухе водяной пар достигнет насыщения.
f - Относительная влажность воздуха - влажноcть воздуха, измеренная на высоте 2 м над землей.
Te - Эффективная температура - температура, которую ощущает одетый по сезону человек в тени. Характеристика душности погоды. При расчете учитывается влияние влажности воздуха и скорости ветра на теплоощущения человека.
Tes - Эффективная температура на солнце - температура, которую ощущает человек, с поправкой на солнечный нагрев. Характеристика знойности погоды. Зависит от высоты солнца над горизонтом, облачности и скорости ветра. Ночью, в пасмурную погоду, а также при ветре 12 м/с и более поправка равна нулю.
P - Атмосферное давление - приведенное к уровню моря атмосферное давление.
Po - Атмосферное давление - измеренное на уровне метеостанции атмосферное давление.
Tmin - Минимальная температура - минимум температуры воздуха на высоте 2 м над землей.
Tmax - Максимальная температура - максимум температуры воздуха на высоте 2 м над землей.
R - Количество осадков - Количество выпавших осадков за период времени, мм. При наведении курсора мыши на число - период времени, за который выпало указанное количество осадков.
R24 - Количество осадков - Количество выпавших осадков за 24 часа, мм.
S - Снежный покров - Высота снежного покрова, см. При наведении курсора мыши на число - состояние снежного покрова и степень покрытия местности в баллах.